Regional Weather Roundup
Issued by NWS

Home | Current Version | Previous Version | Graphics & Text | Print | Product List | Glossary On
Versions: 1 2 3 4 5 6 7 8 9 10 11 12 13 14 15 16 17 18 19 20 21 22 23 24 25 26 27 28 29 30 31 32 33 34 35 36 37 38 39 40 41 42 43 44 45 46 47 48 49 50
000
ASUS45 KTFX 252019
RWRMT
MONTANA HOURLY WEATHER ROUNDUP
NATIONAL WEATHER SERVICE GREAT FALLS MT
219 PM MDT FRI JUL 25 2014

NOTE: "FAIR" INDICATES FEW OR NO CLOUDS BELOW 12000 FEET WITH NO
SIGNIFICANT WEATHER AND/OR OBSTRUCTIONS TO VISIBILITY.

* THESE STATIONS ARE NOT UNDER NWS QUALITY CONTROL. THEY DO NOT
   REPORT WEATHER SUCH AS PRECIPITATION OR FOG.

MTZ001>007-043-252100-
WEST OF THE DIVIDE
CITY           SKY/WX    TMP DP  RH WIND       PRES   REMARKS
KALISPELL      SUNNY     73  41  32 SW12      30.00S
MISSOULA       SUNNY     73  37  27 N7G23     30.05F
BUTTE          SUNNY     72  27  19 NW12G22   30.08F
MULLAN PASS    CLOUDY    54  39  57 VRB3      30.19R
* ESSEX        N/A       63  39  41 E4G11      N/A
* LINCOLN      N/A       66  40  39 S7G20      N/A
* LOOKOUT PASS N/A       60  40  48 NW1G13     N/A
* POLSON       N/A       75  43  32 SW4G11     N/A
* RONAN APT    SUNNY     72  41  33 SW14G22    N/A
* SEELEY LAKE  N/A       67  39  36 NW11G18    N/A
* THOMP F APT  SUNNY     69  25  19 S8G17      N/A
$$

MTZ008-052>055-252100-
SOUTHWEST MONTANA
CITY           SKY/WX    TMP DP  RH WIND       PRES   REMARKS
BOZEMAN        SUNNY     75  30  19 NW12      30.02F
DILLON         SUNNY     75  28  18 VRB5G16   30.05F
W YELLOWSTONE  SUNNY     70  23  17 S17G24    30.16F
* THREE FORKS  SUNNY     79  37  22 N/A        N/A
* BOULDER HILL N/A       68  30  24 S14G27     N/A
* RAYNOLDS PAS N/A       69  48  47 SE7G17     N/A
* WHITEHALL    N/A       79  36  21 SW12G20    N/A
* WISE RIVER   N/A       69  27  21 NW15G28    N/A
$$

MTZ009>010-012-014-046-048-049-054-252100-
EAST SLOPES AND CENTRAL MONTANA
CITY           SKY/WX    TMP DP  RH WIND       PRES   REMARKS
CUT BANK       SUNNY     73  36  26 W31G46    29.88S
GREAT FALLS    SUNNY     75  34  22 SW22G33   29.90S
HELENA         SUNNY     77  34  21 W15G25    30.00F
MALMSTROM AFB  SUNNY     75  32  21 W21G37    29.92S
* CONRAD       SUNNY     73  39  29 W17G24     N/A
* DEARBORN     N/A       73  33  23 S22G33     N/A
* EAST GLACIER N/A       62  37  40 W28G39     N/A
* MONARCH      N/A       69  31  24 SW17G26    N/A
* SAINT MARY   N/A       62  40  45 SW15G34    N/A
* SWEET GRASS  N/A       70  34  27 W27G38     N/A
* WHITE SULPH  N/A       71  34  26 W6G12      N/A
$$

MTZ011-013-016-021-035-040-045-047-050-051-252100-
NORTH CENTRAL MONTANA
CITY           SKY/WX    TMP DP  RH WIND       PRES   REMARKS
HAVRE          SUNNY     79  36  21 W28G38    29.78F
LEWISTOWN      SUNNY     79  25  14 W16G28    29.91F
* FORT BENTON  SUNNY     79  30  17 W21G31    29.85F
* CHESTER      N/A       73  33  23 W25G40     N/A
* DENTON       N/A       79  34  20 W22G34     N/A
* JUDITH GAP   N/A       74  35  24 SW19G27    N/A
* LOMA         N/A       77  31  19 W32G42     N/A
$$

MTZ017>020-022>027-061-062-252100-
NORTHEAST MONTANA
CITY           SKY/WX    TMP DP  RH WIND       PRES   REMARKS
GLASGOW        SUNNY     82  34  18 W16G29    29.77F
GLENDIVE       SUNNY     84  37  19 W17G29    29.82F
JORDAN         SUNNY     82  28  14 W17G28    29.81F
SIDNEY         SUNNY     82  43  25 SW12      29.80F
WOLF POINT     SUNNY     82  36  19 SW23G32   29.78F
* BEAVER HILL  N/A       81  41  24 SW15G26    N/A
* CIRCLE       N/A       83  41  23 SW12G21    N/A
* LINDSAY DVD  N/A       80  35  20 SW24G34    N/A
* NAVAJO       N/A       75  43  32 W20G29     N/A
$$

MTZ028>042-056>058-252100-
SOUTHCENTRAL AND SOUTHEAST MONTANA
CITY           SKY/WX    TMP DP  RH WIND       PRES   REMARKS
BAKER          SUNNY     82  39  22 W13G21    29.88F
BILLINGS       SUNNY     82  36  19 SW12      29.90F
LIVINGSTON     SUNNY     82  28  14 W21G28    29.97F
MILES CITY     SUNNY     84  36  18 W15G21    29.84F
* LAUREL APT   SUNNY     82  34  18 W8         N/A
* ROUNDUP APT  SUNNY     82  27  13 SW22G35    N/A
* ALZADA       N/A       81  39  22 SE3G8      N/A
* HYSHAM       N/A       82  38  21 W14G21     N/A
* LAME DEER    N/A       79  45  30 S9G18      N/A
* REED POINT   N/A       83  40  22 W16G25     N/A
* ROSCOE HILL  N/A       77  36  23 N8G15      N/A
$$

REGIONAL REPORTS...DAKOTAS
CITY           SKY/WX    TMP DP  RH WIND       PRES   REMARKS
WILLISTON      SUNNY     81  41  24 SW16G25   29.79F
DICKINSON      SUNNY     79  41  26 W10       29.86F
CROSBY         SUNNY     73  50  44 W15G23    29.78F
TIOGA          SUNNY     75  46  36 W21G26    29.83F
WATFORD CITY   SUNNY     79  48  34 W10       29.79F
BISMARCK       SUNNY     82  46  28 NW13G18   29.84F
GRAND FORKS    PTSUNNY   79  66  65 NW9       29.72F
FARGO          PTSUNNY   79  66  65 W6        29.75S
BUFFALO SD     SUNNY     79  45  30 SE6       29.85F
RAPID CITY     SUNNY     79  50  36 CALM      29.94F
$$

REGIONAL REPORTS...WYOMING/IDAHO/WASHINGTON
CITY           SKY/WX    TMP DP  RH WIND       PRES   REMARKS
GILLETTE       SUNNY     88  43  21 S10G16    29.93F
SHERIDAN       SUNNY     84  48  29 E7        29.91F
YELLOWSTONE LA SUNNY     66  16  14 SW12G18   30.25S
SALMON         SUNNY     75  34  22 N6        30.01F
MULLAN PASS    CLOUDY    54  39  57 VRB3      30.19S
SAND POINT     SUNNY     70  45  41 W7G17     30.07F
SPOKANE        SUNNY     70  39  32 VRB6      30.09F
$$

REGIONAL REPORTS...ALBERTA
CITY           SKY/WX    TMP DP  RH WIND       PRES   REMARKS
CALGARY        LGT RAIN  61  45  56 N13G23    29.81R
LETHBRIDGE     PTSUNNY   72  39  30 W35G44    29.81R
MEDICINE HAT   CLOUDY    64  45  50 NW22G31   29.75R
EDMONTON       LGT RAIN  55  54  96 NW22G37   29.67R
WATERTON GATE  N/A       66  37  34 SW18G30    N/A
CARDSTON       N/A       68  41  38 W20G31     N/A
MILK RIVER     N/A       73  37  27 W26G36     N/A
$$

REGIONAL REPORTS...SASKATCHEWAN
CITY           SKY/WX    TMP DP  RH WIND       PRES   REMARKS
SWIFT CURRENT  PTSUNNY   64  48  56 W30G37    29.65R
MOOSE JAW      PTSUNNY   73  46  38 SW18G25   29.66F
REGINA         SUNNY     75  52  45 SW17G29   29.68F
VAL MARIE      N/A       72  41  33 W22G30     N/A
ASSINIBOIA     N/A       72  46  40 SW24G35    N/A
CORONACH       N/A       75  43  32 W20G31     N/A

$$




USA.gov is the U.S. government's official web portal to all federal, state and local government web resources and services.